ELY2221 LLBG-LLBG

Flight info

Callsign ELY2221
Flight time N/A
Altitude 38000
Route SUVAS L53 STEPA N71 BIRES/N0483F370 Z89 PIKOG L609 ZUKKO
Aircraft B772/H-SDE2E3FGHIJ5LORVWXY/LB1D1

Departure

Time 2026-04-30 13:06
Airport Ben Gurion International Airport (LLBG)

Arrival

Time N/A
Airport Ben Gurion International Airport (LLBG)
Time Latitude Longitude Altitude Speed Heading
2026-04-30 12:51 32.00370 34.87639 120 ft 0 kts 272°
2026-04-30 13:00 32.00370 34.87651 124 ft 2 kts 275°
2026-04-30 13:00 32.00368 34.87670 123 ft 2 kts 282°
2026-04-30 13:00 32.00365 34.87680 119 ft 2 kts 288°
2026-04-30 13:00 32.00362 34.87691 121 ft 2 kts 295°
2026-04-30 13:01 32.00357 34.87704 125 ft 2 kts 309°
2026-04-30 13:01 32.00348 34.87715 121 ft 1 kts 327°
2026-04-30 13:01 32.00337 34.87722 121 ft 2 kts 348°
2026-04-30 13:01 32.00330 34.87724 121 ft 1 kts
2026-04-30 13:02 32.00331 34.87724 119 ft 2 kts
2026-04-30 13:02 32.00437 34.87804 122 ft 29 kts 35°
2026-04-30 13:02 32.00582 34.87915 121 ft 23 kts 31°
2026-04-30 13:03 32.00630 34.87949 120 ft 3 kts 31°
2026-04-30 13:03 32.00633 34.87951 120 ft 0 kts 31°
2026-04-30 13:03 32.00638 34.87955 120 ft 7 kts 31°
2026-04-30 13:03 32.00782 34.88056 122 ft 41 kts 31°
2026-04-30 13:04 32.01097 34.88285 121 ft 57 kts 33°
2026-04-30 13:04 32.01387 34.88562 120 ft 52 kts 53°
2026-04-30 13:04 32.01510 34.88938 123 ft 47 kts 79°
2026-04-30 13:04 32.01583 34.89142 120 ft 21 kts 25°
2026-04-30 13:05 32.01724 34.89124 119 ft 15 kts 331°
2026-04-30 13:05 32.01741 34.89069 120 ft 0 kts 258°
2026-04-30 13:05 32.01711 34.88862 125 ft 61 kts 260°
2026-04-30 13:06 32.01383 34.86783 476 ft 162 kts 257°
2026-04-30 13:06 32.01114 34.85538 1419 ft 154 kts 261°
2026-04-30 13:06 32.00860 34.84271 2061 ft 166 kts 253°
2026-04-30 13:06 32.00565 34.82849 2263 ft 195 kts 257°
2026-04-30 13:07 32.00245 34.81181 2511 ft 222 kts 256°
2026-04-30 13:07 32.00084 34.79324 2681 ft 233 kts 277°
2026-04-30 13:07 32.00692 34.77553 2749 ft 236 kts 306°
2026-04-30 13:07 32.01980 34.76335 2827 ft 243 kts 334°
2026-04-30 13:08 32.03625 34.75979 2931 ft 249 kts
2026-04-30 13:08 32.05316 34.76547 3196 ft 257 kts 20°
2026-04-30 13:08 32.06968 34.77463 3465 ft 265 kts 24°
2026-04-30 13:08 32.08606 34.78416 3745 ft 266 kts 24°
2026-04-30 13:09 32.10294 34.79388 3891 ft 273 kts 24°
2026-04-30 13:09 32.12017 34.80370 3942 ft 275 kts 24°
2026-04-30 13:09 32.13759 34.81357 3993 ft 280 kts 24°
2026-04-30 13:09 32.15517 34.82354 3987 ft 276 kts 24°
2026-04-30 13:10 32.17221 34.83325 3992 ft 273 kts 24°
2026-04-30 13:10 32.18928 34.84300 4003 ft 272 kts 24°
2026-04-30 13:10 32.20569 34.85382 3952 ft 266 kts 39°
2026-04-30 13:10 32.21723 34.87133 4014 ft 277 kts 64°
2026-04-30 13:11 32.22142 34.89301 3996 ft 276 kts 91°
2026-04-30 13:11 32.21703 34.91613 4021 ft 299 kts 114°
2026-04-30 13:11 32.20687 34.93751 3995 ft 299 kts 122°
2026-04-30 13:11 32.19506 34.95880 4019 ft 318 kts 124°
2026-04-30 13:12 32.18277 34.98019 3990 ft 319 kts 124°
2026-04-30 13:12 32.17020 35.00186 3993 ft 319 kts 124°
2026-04-30 13:12 32.15761 35.02345 3991 ft 318 kts 124°
2026-04-30 13:13 32.13223 35.06683 4013 ft 321 kts 124°
2026-04-30 13:13 32.11962 35.08827 4003 ft 322 kts 124°
2026-04-30 13:13 32.09368 35.12800 3958 ft 269 kts 142°
2026-04-30 13:14 32.07814 35.13655 3963 ft 239 kts 171°
2026-04-30 13:14 32.06185 35.13708 4006 ft 230 kts 182°
2026-04-30 13:14 32.03041 35.13418 3991 ft 226 kts 184°
2026-04-30 13:15 32.01463 35.13250 4002 ft 227 kts 184°
2026-04-30 13:15 31.98371 35.12919 3978 ft 210 kts 184°
2026-04-30 13:15 31.96961 35.12767 4001 ft 209 kts 184°
2026-04-30 13:16 31.95499 35.12610 3973 ft 206 kts 184°
2026-04-30 13:16 31.94101 35.12452 3993 ft 198 kts 184°
2026-04-30 13:16 31.92798 35.12083 4011 ft 190 kts 211°
2026-04-30 13:17 31.91631 35.09403 4029 ft 197 kts 262°
2026-04-30 13:17 31.91524 35.07884 4015 ft 174 kts 263°
2026-04-30 13:17 31.91702 35.05835 4009 ft 140 kts 290°
2026-04-30 13:18 31.92223 35.04439 4025 ft 141 kts 289°